QTR21D OTHH-OMDB

Flight info

Callsign QTR21D
Flight time 0h 42m
Altitude 25000
Route ALSEM DCT ULIVA DCT RIDAP
Aircraft A35K/H-SDE2E3GHIJ3J4J5LM1ORWXY/LB1D1

Departure

Time 2026-05-05 13:21
Airport Hamad International Airport (OTHH)

Arrival

Time 2026-05-05 14:03
Airport Dubai International Airport (OMDB)
Time Latitude Longitude Altitude Speed Heading
2026-05-05 13:02 25.26039 51.60858 28 ft 0 kts 128°
2026-05-05 13:02 25.26040 51.60858 28 ft 0 kts 128°
2026-05-05 13:10 25.26041 51.60857 28 ft 3 kts 128°
2026-05-05 13:10 25.26056 51.60833 26 ft 4 kts 126°
2026-05-05 13:10 25.26070 51.60814 26 ft 2 kts 139°
2026-05-05 13:10 25.26079 51.60808 26 ft 2 kts 171°
2026-05-05 13:11 25.26098 51.60807 26 ft 3 kts 180°
2026-05-05 13:11 25.26118 51.60807 26 ft 2 kts 191°
2026-05-05 13:11 25.26128 51.60811 26 ft 2 kts 223°
2026-05-05 13:11 25.26135 51.60820 26 ft 2 kts 242°
2026-05-05 13:12 25.26138 51.60827 25 ft 0 kts 247°
2026-05-05 13:14 25.26135 51.60818 26 ft 2 kts 248°
2026-05-05 13:14 25.26124 51.60790 26 ft 6 kts 248°
2026-05-05 13:15 25.26107 51.60741 28 ft 8 kts 249°
2026-05-05 13:15 25.26082 51.60670 28 ft 11 kts 249°
2026-05-05 13:15 25.26044 51.60580 27 ft 14 kts 234°
2026-05-05 13:15 25.25984 51.60564 27 ft 8 kts 167°
2026-05-05 13:16 25.25910 51.60592 27 ft 18 kts 158°
2026-05-05 13:16 25.25802 51.60640 26 ft 2 kts 158°
2026-05-05 13:16 25.25782 51.60649 26 ft 5 kts 158°
2026-05-05 13:16 25.25742 51.60662 26 ft 7 kts 174°
2026-05-05 13:17 25.25706 51.60635 30 ft 6 kts 238°
2026-05-05 13:17 25.25697 51.60616 27 ft 0 kts 242°
2026-05-05 13:18 25.25696 51.60614 27 ft 2 kts 242°
2026-05-05 13:18 25.25682 51.60580 26 ft 8 kts 246°
2026-05-05 13:19 25.25672 51.60509 22 ft 7 kts 294°
2026-05-05 13:19 25.25705 51.60481 22 ft 6 kts 328°
2026-05-05 13:19 25.25713 51.60477 22 ft 0 kts 337°
2026-05-05 13:20 25.25718 51.60475 22 ft 8 kts 336°
2026-05-05 13:20 25.26001 51.60348 27 ft 82 kts 339°
2026-05-05 13:20 25.26736 51.60024 22 ft 147 kts 338°
2026-05-05 13:20 25.27731 51.59552 612 ft 153 kts 339°
2026-05-05 13:21 25.28738 51.59082 1188 ft 163 kts 340°
2026-05-05 13:21 25.29924 51.58955 1385 ft 185 kts 16°
2026-05-05 13:21 25.30954 51.59888 1577 ft 209 kts 59°
2026-05-05 13:21 25.31207 51.61559 1745 ft 237 kts 96°
2026-05-05 13:22 25.30930 51.62762 1934 ft 251 kts 108°
2026-05-05 13:22 25.30190 51.64565 2368 ft 262 kts 110°
2026-05-05 13:22 25.29786 51.66546 2906 ft 267 kts 93°
2026-05-05 13:22 25.29782 51.68613 3493 ft 271 kts 84°
2026-05-05 13:23 25.30018 51.70682 4131 ft 273 kts 79°
2026-05-05 13:23 25.30371 51.72750 4779 ft 275 kts 76°
2026-05-05 13:23 25.30765 51.74826 5392 ft 277 kts 76°
2026-05-05 13:23 25.31115 51.76934 6016 ft 280 kts 80°
2026-05-05 13:24 25.31353 51.79081 6602 ft 283 kts 81°
2026-05-05 13:24 25.31561 51.81264 7141 ft 288 kts 82°
2026-05-05 13:24 25.31742 51.83490 7708 ft 291 kts 83°
2026-05-05 13:24 25.31901 51.85736 8264 ft 295 kts 83°
2026-05-05 13:25 25.32050 51.88011 8835 ft 299 kts 83°
2026-05-05 13:25 25.32194 51.90318 9413 ft 302 kts 83°
2026-05-05 13:25 25.32339 51.92650 9951 ft 307 kts 83°
2026-05-05 13:25 25.32492 51.95059 10233 ft 321 kts 83°
2026-05-05 13:26 25.32654 51.97551 10451 ft 336 kts 83°
2026-05-05 13:26 25.32827 52.00173 10677 ft 349 kts 83°
2026-05-05 13:26 25.33006 52.02898 10891 ft 362 kts 83°
2026-05-05 13:26 25.33189 52.05715 11103 ft 373 kts 83°
2026-05-05 13:27 25.33371 52.08607 11449 ft 378 kts 83°
2026-05-05 13:27 25.33552 52.11521 11892 ft 381 kts 83°
2026-05-05 13:27 25.33733 52.14453 12351 ft 383 kts 83°
2026-05-05 13:27 25.33914 52.17398 12821 ft 385 kts 83°
2026-05-05 13:28 25.34098 52.20362 13277 ft 387 kts 83°
2026-05-05 13:28 25.34283 52.23339 13711 ft 389 kts 83°
2026-05-05 13:28 25.34469 52.26330 14080 ft 392 kts 83°
2026-05-05 13:28 25.34657 52.29351 14458 ft 395 kts 83°
2026-05-05 13:29 25.34845 52.32388 14843 ft 397 kts 84°
2026-05-05 13:29 25.35032 52.35417 15209 ft 400 kts 84°
2026-05-05 13:29 25.35221 52.38504 15592 ft 403 kts 84°
2026-05-05 13:29 25.35412 52.41619 15970 ft 407 kts 84°
2026-05-05 13:30 25.35603 52.44750 16357 ft 410 kts 84°
2026-05-05 13:30 25.35794 52.47903 16728 ft 413 kts 85°
2026-05-05 13:30 25.35987 52.51085 17112 ft 416 kts 85°
2026-05-05 13:30 25.36179 52.54283 17490 ft 419 kts 85°
2026-05-05 13:31 25.36373 52.57510 17865 ft 422 kts 85°
2026-05-05 13:31 25.36567 52.60751 18208 ft 425 kts 85°
2026-05-05 13:31 25.36761 52.64023 18549 ft 427 kts 85°
2026-05-05 13:31 25.36962 52.67308 18900 ft 429 kts 85°
2026-05-05 13:32 25.37222 52.70607 19241 ft 431 kts 84°
2026-05-05 13:32 25.37496 52.73916 19585 ft 433 kts 84°
2026-05-05 13:32 25.37764 52.77248 19923 ft 435 kts 84°
2026-05-05 13:32 25.38022 52.80552 20265 ft 438 kts 84°
2026-05-05 13:33 25.38280 52.83911 20600 ft 440 kts 84°
2026-05-05 13:33 25.38535 52.87294 20932 ft 442 kts 84°
2026-05-05 13:33 25.38763 52.90697 21250 ft 444 kts 88°
2026-05-05 13:33 25.38693 52.94129 21575 ft 446 kts 93°
2026-05-05 13:34 25.38476 52.97565 21907 ft 448 kts 94°
2026-05-05 13:34 25.38213 53.00974 22572 ft 440 kts 95°
2026-05-05 13:34 25.37939 53.04326 23211 ft 436 kts 95°
2026-05-05 13:34 25.37659 53.07670 23484 ft 440 kts 95°
2026-05-05 13:35 25.37369 53.11057 23606 ft 446 kts 95°
2026-05-05 13:35 25.37070 53.14501 23715 ft 453 kts 95°
2026-05-05 13:35 25.36765 53.17998 23828 ft 460 kts 95°
2026-05-05 13:35 25.36453 53.21550 23977 ft 465 kts 95°
2026-05-05 13:36 25.36142 53.25069 24166 ft 468 kts 95°
2026-05-05 13:36 25.35821 53.28708 24386 ft 470 kts 95°
2026-05-05 13:36 25.35504 53.32276 24613 ft 473 kts 95°
2026-05-05 13:36 25.35182 53.35906 24742 ft 480 kts 95°
2026-05-05 13:37 25.34848 53.39644 24763 ft 496 kts 95°
2026-05-05 13:37 25.34504 53.43476 24757 ft 502 kts 96°
2026-05-05 13:37 25.34158 53.47318 24753 ft 502 kts 95°
2026-05-05 13:37 25.33810 53.51176 24756 ft 502 kts 96°
2026-05-05 13:38 25.33462 53.55022 24756 ft 502 kts 95°
2026-05-05 13:38 25.33118 53.58824 24754 ft 502 kts 96°
2026-05-05 13:38 25.32768 53.62664 24753 ft 502 kts 96°
2026-05-05 13:38 25.32417 53.66513 24756 ft 502 kts 96°
2026-05-05 13:39 25.32067 53.70354 24755 ft 502 kts 95°
2026-05-05 13:39 25.31716 53.74192 24754 ft 502 kts 95°
2026-05-05 13:39 25.31364 53.78030 24755 ft 502 kts 95°
2026-05-05 13:39 25.31010 53.81877 24756 ft 502 kts 95°
2026-05-05 13:40 25.30656 53.85712 24753 ft 502 kts 95°
2026-05-05 13:40 25.30301 53.89553 24756 ft 502 kts 96°
2026-05-05 13:40 25.29944 53.93390 24756 ft 502 kts 96°
2026-05-05 13:40 25.29587 53.97229 24753 ft 502 kts 96°
2026-05-05 13:41 25.29229 54.01066 24753 ft 502 kts 96°
2026-05-05 13:41 25.28873 54.04857 24750 ft 502 kts 96°
2026-05-05 13:41 25.28513 54.08697 24753 ft 502 kts 96°
2026-05-05 13:41 25.28152 54.12535 24751 ft 502 kts 96°
2026-05-05 13:42 25.27789 54.16371 24751 ft 502 kts 96°
2026-05-05 13:42 25.27425 54.20217 24750 ft 502 kts 96°
2026-05-05 13:42 25.27060 54.24056 24752 ft 502 kts 96°
2026-05-05 13:42 25.26694 54.27898 24748 ft 502 kts 96°
2026-05-05 13:43 25.26329 54.31730 24725 ft 500 kts 96°
2026-05-05 13:43 25.25971 54.35465 24218 ft 493 kts 95°
2026-05-05 13:43 25.25608 54.39248 23464 ft 493 kts 95°
2026-05-05 13:43 25.25245 54.43001 22786 ft 489 kts 95°
2026-05-05 13:44 25.24886 54.46710 22136 ft 483 kts 95°
2026-05-05 13:44 25.24531 54.50375 21466 ft 478 kts 95°
2026-05-05 13:44 25.24177 54.54007 20819 ft 472 kts 95°
2026-05-05 13:44 25.23828 54.57593 20200 ft 467 kts 95°
2026-05-05 13:45 25.23502 54.61147 19553 ft 462 kts 95°
2026-05-05 13:45 25.23191 54.64645 19147 ft 452 kts 95°
2026-05-05 13:45 25.22886 54.68075 18620 ft 446 kts 95°
2026-05-05 13:45 25.22585 54.71464 18054 ft 441 kts 95°
2026-05-05 13:46 25.22288 54.74817 17394 ft 437 kts 95°
2026-05-05 13:46 25.21991 54.78146 16750 ft 433 kts 95°
2026-05-05 13:46 25.21697 54.81441 16134 ft 428 kts 95°
2026-05-05 13:46 25.21408 54.84697 15536 ft 423 kts 95°
2026-05-05 13:47 25.21128 54.87870 14943 ft 419 kts 95°
2026-05-05 13:47 25.20847 54.91053 14364 ft 414 kts 95°
2026-05-05 13:47 25.20572 54.94202 13790 ft 409 kts 95°
2026-05-05 13:47 25.20304 54.97309 13172 ft 405 kts 95°
2026-05-05 13:48 25.20040 55.00377 12698 ft 396 kts 95°
2026-05-05 13:48 25.19792 55.03284 12249 ft 365 kts 95°
2026-05-05 13:48 25.19564 55.05958 11793 ft 341 kts 95°
2026-05-05 13:48 25.19349 55.08481 11391 ft 319 kts 95°
2026-05-05 13:49 25.19147 55.10841 11031 ft 299 kts 95°
2026-05-05 13:49 25.18958 55.13069 10641 ft 285 kts 95°
2026-05-05 13:49 25.18776 55.15219 10094 ft 278 kts 95°
2026-05-05 13:49 25.18600 55.17333 9498 ft 274 kts 95°
2026-05-05 13:50 25.18429 55.19412 8864 ft 271 kts 95°
2026-05-05 13:50 25.18262 55.21481 8308 ft 271 kts 95°
2026-05-05 13:50 25.18100 55.23551 8029 ft 267 kts 95°
2026-05-05 13:50 25.17802 55.25559 7992 ft 266 kts 104°
2026-05-05 13:51 25.17299 55.27522 7993 ft 266 kts 107°
2026-05-05 13:51 25.16760 55.29472 7993 ft 266 kts 107°
2026-05-05 13:51 25.16217 55.31421 7992 ft 266 kts 107°
2026-05-05 13:51 25.15673 55.33373 7991 ft 266 kts 107°
2026-05-05 13:52 25.15129 55.35325 7993 ft 266 kts 107°
2026-05-05 13:52 25.14584 55.37277 7994 ft 266 kts 107°
2026-05-05 13:52 25.14041 55.39226 7994 ft 266 kts 107°
2026-05-05 13:52 25.13501 55.41159 7995 ft 266 kts 107°
2026-05-05 13:53 25.12955 55.43114 7994 ft 266 kts 107°
2026-05-05 13:53 25.12387 55.45060 7986 ft 266 kts 111°
2026-05-05 13:53 25.11571 55.46883 7599 ft 267 kts 120°
2026-05-05 13:53 25.10590 55.48650 7149 ft 271 kts 121°
2026-05-05 13:54 25.09585 55.50403 6794 ft 270 kts 122°
2026-05-05 13:54 25.08579 55.52143 6445 ft 268 kts 122°
2026-05-05 13:54 25.07585 55.53848 5838 ft 263 kts 122°
2026-05-05 13:54 25.06589 55.55537 5126 ft 262 kts 122°
2026-05-05 13:55 25.05593 55.57216 4480 ft 260 kts 120°
2026-05-05 13:55 25.04954 55.59046 3773 ft 255 kts 94°
2026-05-05 13:55 25.05202 55.60927 3265 ft 246 kts 65°
2026-05-05 13:55 25.06237 55.62376 2721 ft 242 kts 37°
2026-05-05 13:56 25.07797 55.63026 2243 ft 244 kts
2026-05-05 13:56 25.09458 55.62696 2021 ft 242 kts 339°
2026-05-05 13:56 25.10874 55.61846 1978 ft 229 kts 323°
2026-05-05 13:56 25.11912 55.60581 1984 ft 217 kts 307°
2026-05-05 13:57 25.12682 55.59196 1984 ft 209 kts 303°
2026-05-05 13:57 25.13412 55.57840 2008 ft 198 kts 303°
2026-05-05 13:57 25.14098 55.56579 1991 ft 187 kts 305°
2026-05-05 13:57 25.14777 55.55357 1996 ft 186 kts 306°
2026-05-05 13:58 25.15459 55.54143 1987 ft 186 kts 305°
2026-05-05 13:58 25.16138 55.52934 2001 ft 182 kts 305°
2026-05-05 13:58 25.16777 55.51787 1983 ft 169 kts 305°
2026-05-05 13:58 25.17387 55.50690 1991 ft 169 kts 304°
2026-05-05 13:59 25.18535 55.48616 1900 ft 150 kts 306°
2026-05-05 13:59 25.19071 55.47648 1698 ft 145 kts 306°
2026-05-05 14:00 25.20108 55.45771 1368 ft 144 kts 304°
2026-05-05 14:00 25.20456 55.45127 1213 ft 143 kts 305°
2026-05-05 14:00 25.21154 55.43905 983 ft 142 kts 307°
2026-05-05 14:00 25.21659 55.42978 802 ft 139 kts 303°
2026-05-05 14:01 25.22145 55.42083 614 ft 134 kts 303°
2026-05-05 14:01 25.22631 55.41198 471 ft 136 kts 303°
2026-05-05 14:01 25.23128 55.40310 246 ft 133 kts 303°
2026-05-05 14:01 25.23607 55.39460 64 ft 130 kts 302°
2026-05-05 14:02 25.24049 55.38663 35 ft 101 kts 301°
2026-05-05 14:02 25.24335 55.38149 38 ft 71 kts 301°
2026-05-05 14:02 25.24577 55.37708 34 ft 62 kts 301°
2026-05-05 14:02 25.24787 55.37333 35 ft 54 kts 301°
2026-05-05 14:03 25.24973 55.36992 36 ft 51 kts 302°
2026-05-05 14:03 25.25156 55.36665 34 ft 34 kts 301°
2026-05-05 14:03 25.25167 55.36477 31 ft 20 kts 218°
2026-05-05 14:03 25.25108 55.36432 29 ft 8 kts 213°
2026-05-05 14:04 25.25078 55.36383 28 ft 8 kts 265°
2026-05-05 14:04 25.25089 55.36318 28 ft 10 kts 290°
2026-05-05 14:04 25.25122 55.36249 28 ft 11 kts 300°
2026-05-05 14:04 25.25169 55.36169 28 ft 14 kts 303°
2026-05-05 14:05 25.25226 55.36072 28 ft 16 kts 303°
2026-05-05 14:05 25.25290 55.35958 28 ft 19 kts 302°
2026-05-05 14:05 25.25346 55.35860 27 ft 15 kts 301°
2026-05-05 14:05 25.25403 55.35756 27 ft 17 kts 301°
2026-05-05 14:06 25.25469 55.35638 27 ft 19 kts 302°
2026-05-05 14:06 25.25561 55.35476 27 ft 28 kts 302°
2026-05-05 14:06 25.25631 55.35353 27 ft 29 kts 301°
2026-05-05 14:06 25.25738 55.35157 27 ft 30 kts 301°
2026-05-05 14:07 25.25871 55.34916 27 ft 14 kts 302°
2026-05-05 14:07 25.25877 55.34906 27 ft 2 kts 301°
2026-05-05 14:07 25.25890 55.34882 27 ft 5 kts 301°
2026-05-05 14:07 25.25905 55.34855 27 ft 7 kts 302°
2026-05-05 14:08 25.25934 55.34800 27 ft 9 kts 300°
2026-05-05 14:08 25.25976 55.34723 27 ft 14 kts 301°
2026-05-05 14:08 25.25980 55.34658 27 ft 6 kts 233°
2026-05-05 14:08 25.25930 55.34621 27 ft 14 kts 212°